When you browse on this site, cookies collect data to enhance your experience and personalize the content and advertising you see.
Visit our Privacy Policy to learn more. By continuing to use the site, you agree to this use of cookies and data.
  • Em Portugal
  • Lista de países
  • Para 7 dias
  • Temperatura da água
  • Mapas de satélite
  • Mapa do tempo
  • Widgets de tempo
  • user-avatar
    Iniciar Sessão

    Previsão horária em Pralniki

    Hoje, 16 Junho, Domingo

    Tempo Temperatura Precipitação Vento Pressão Humidade
    00:00 +17°C° 0 mm 3 m/s 743 mmHg 77%
    01:00 +16°C° 0 mm 3 m/s 744 mmHg 77%
    02:00 +16°C° 0 mm 3 m/s 744 mmHg 75%
    03:00 +16°C° 0 mm 3 m/s 743 mmHg 78%
    04:00 +16°C° 0 mm 3 m/s 743 mmHg 80%
    05:00 +15°C° 0 mm 2 m/s 743 mmHg 83%
    06:00 +17°C° 0 mm 3 m/s 743 mmHg 81%
    07:00 +19°C° 0 mm 3 m/s 743 mmHg 79%
    08:00 +20°C° 0 mm 3 m/s 743 mmHg 77%
    09:00 +21°C° 0 mm 3 m/s 743 mmHg 74%
    10:00 +23°C° 0 mm 4 m/s 743 mmHg 71%
    11:00 +25°C° 0 mm 4 m/s 742 mmHg 68%
    12:00 +25°C° 0 mm 4 m/s 742 mmHg 67%
    13:00 +26°C° 0 mm 4 m/s 742 mmHg 65%
    14:00 +27°C° 0 mm 4 m/s 742 mmHg 64%
    15:00 +26°C° 1 mm 3 m/s 742 mmHg 71%
    16:00 +25°C° 1 mm 3 m/s 742 mmHg 78%
    17:00 +24°C° 1 mm 2 m/s 741 mmHg 85%
    18:00 +22°C° 1.1 mm 3 m/s 741 mmHg 88%
    19:00 +21°C° 1.1 mm 3 m/s 741 mmHg 91%
    20:00 +20°C° 1.1 mm 3 m/s 741 mmHg 94%
    21:00 +19°C° 0 mm 3 m/s 741 mmHg 94%
    22:00 +18°C° 0 mm 2 m/s 741 mmHg 94%
    23:00 +18°C° 0 mm 2 m/s 741 mmHg 95%

    Amanhã, 17 Junho, Segunda-feira

    Tempo Temperatura Precipitação Vento Pressão Humidade
    00:00 +18°C° 0 mm 2 m/s 742 mmHg 95%
    01:00 +17°C° 0 mm 2 m/s 742 mmHg 96%
    02:00 +18°C° 0 mm 1 m/s 742 mmHg 97%
    03:00 +19°C° 0 mm 1 m/s 742 mmHg 97%
    04:00 +19°C° 0 mm 1 m/s 742 mmHg 97%
    05:00 +19°C° 0 mm 1 m/s 742 mmHg 97%
    06:00 +20°C° 0 mm 1 m/s 742 mmHg 95%
    07:00 +21°C° 0 mm 1 m/s 742 mmHg 94%
    08:00 +21°C° 0 mm 1 m/s 742 mmHg 92%
    09:00 +20°C° 0.1 mm 2 m/s 742 mmHg 92%
    10:00 +20°C° 0.1 mm 3 m/s 742 mmHg 92%
    11:00 +19°C° 0.1 mm 4 m/s 742 mmHg 92%
    12:00 +20°C° 0 mm 4 m/s 743 mmHg 87%
    13:00 +21°C° 0 mm 4 m/s 743 mmHg 82%
    14:00 +22°C° 0 mm 5 m/s 743 mmHg 77%
    15:00 +22°C° 0 mm 4 m/s 743 mmHg 78%
    16:00 +21°C° 0 mm 4 m/s 743 mmHg 80%
    17:00 +21°C° 0 mm 4 m/s 743 mmHg 82%
    18:00 +20°C° 0.1 mm 4 m/s 743 mmHg 85%
    19:00 +19°C° 0.1 mm 3 m/s 743 mmHg 89%
    20:00 +19°C° 0.1 mm 3 m/s 743 mmHg 93%
    21:00 +18°C° 0 mm 3 m/s 743 mmHg 94%
    22:00 +17°C° 0 mm 3 m/s 743 mmHg 95%
    23:00 +17°C° 0 mm 4 m/s 744 mmHg 95%

    Depois de amanhã, 18 Junho, Terça-feira

    Tempo Temperatura Precipitação Vento Pressão Humidade
    00:00 +16°C° 0 mm 3 m/s 744 mmHg 94%
    01:00 +14°C° 0 mm 3 m/s 744 mmHg 93%
    02:00 +13°C° 0 mm 3 m/s 744 mmHg 92%
    03:00 +13°C° 0 mm 3 m/s 744 mmHg 91%
    04:00 +13°C° 0 mm 4 m/s 745 mmHg 89%
    05:00 +13°C° 0 mm 4 m/s 745 mmHg 88%
    06:00 +14°C° 0 mm 4 m/s 745 mmHg 83%
    07:00 +15°C° 0 mm 4 m/s 745 mmHg 77%
    08:00 +17°C° 0 mm 4 m/s 746 mmHg 72%
    09:00 +19°C° 0 mm 4 m/s 746 mmHg 68%
    10:00 +20°C° 0 mm 4 m/s 746 mmHg 65%
    11:00 +21°C° 0 mm 4 m/s 746 mmHg 61%
    12:00 +22°C° 0 mm 3 m/s 746 mmHg 57%
    13:00 +24°C° 0 mm 3 m/s 746 mmHg 55%
    14:00 +24°C° 0 mm 2 m/s 746 mmHg 53%
    15:00 +24°C° 0 mm 2 m/s 746 mmHg 55%
    16:00 +24°C° 0 mm 2 m/s 746 mmHg 56%
    17:00 +24°C° 0 mm 2 m/s 746 mmHg 57%
    18:00 +23°C° 0 mm 2 m/s 746 mmHg 63%
    19:00 +21°C° 0 mm 1 m/s 746 mmHg 69%
    20:00 +20°C° 0 mm 1 m/s 745 mmHg 75%
    21:00 +19°C° 0 mm 1 m/s 746 mmHg 76%
    22:00 +18°C° 0 mm 1 m/s 746 mmHg 78%
    23:00 +16°C° 0 mm 1 m/s 746 mmHg 80%

    19 Junho, Quarta-feira

    Tempo Temperatura Precipitação Vento Pressão Humidade
    00:00 +15°C° 0 mm 1 m/s 746 mmHg 80%
    01:00 +15°C° 0 mm 1 m/s 746 mmHg 81%
    02:00 +15°C° 0 mm 1 m/s 746 mmHg 82%
    03:00 +15°C° 0 mm 1 m/s 746 mmHg 82%
    04:00 +15°C° 0 mm 1 m/s 746 mmHg 83%
    05:00 +15°C° 0 mm 1 m/s 746 mmHg 83%
    06:00 +18°C° 0 mm 1 m/s 746 mmHg 80%
    07:00 +20°C° 0 mm 1 m/s 746 mmHg 77%
    08:00 +21°C° 0 mm 1 m/s 746 mmHg 74%
    09:00 +21°C° 0 mm 2 m/s 746 mmHg 69%
    10:00 +23°C° 0 mm 2 m/s 746 mmHg 65%
    11:00 +24°C° 0 mm 2 m/s 746 mmHg 60%
    12:00 +25°C° 0 mm 2 m/s 746 mmHg 59%
    13:00 +25°C° 0 mm 2 m/s 746 mmHg 58%
    14:00 +25°C° 0 mm 2 m/s 745 mmHg 57%
    15:00 +25°C° 0 mm 2 m/s 745 mmHg 59%
    16:00 +25°C° 0 mm 3 m/s 745 mmHg 62%
    17:00 +25°C° 0 mm 3 m/s 744 mmHg 64%
    18:00 +24°C° 0 mm 2 m/s 744 mmHg 69%
    19:00 +23°C° 0 mm 2 m/s 744 mmHg 73%
    20:00 +20°C° 0 mm 2 m/s 744 mmHg 78%
    21:00 +20°C° 0 mm 3 m/s 744 mmHg 78%
    22:00 +19°C° 0 mm 3 m/s 744 mmHg 78%
    23:00 +18°C° 0 mm 3 m/s 744 mmHg 78%

    20 Junho, Quinta-feira

    Tempo Temperatura Precipitação Vento Pressão Humidade
    00:00 +18°C° 0.1 mm 3 m/s 744 mmHg 77%
    01:00 +18°C° 0.1 mm 4 m/s 743 mmHg 76%
    02:00 +18°C° 0.1 mm 4 m/s 743 mmHg 75%
    03:00 +18°C° 0.2 mm 4 m/s 743 mmHg 79%
    04:00 +18°C° 0.2 mm 4 m/s 743 mmHg 83%
    05:00 +17°C° 0.2 mm 3 m/s 743 mmHg 87%
    06:00 +18°C° 0 mm 4 m/s 743 mmHg 87%
    07:00 +19°C° 0 mm 4 m/s 743 mmHg 87%
    08:00 +20°C° 0 mm 4 m/s 743 mmHg 87%
    09:00 +20°C° 0 mm 4 m/s 743 mmHg 86%
    10:00 +21°C° 0 mm 3 m/s 743 mmHg 85%
    11:00 +22°C° 0 mm 3 m/s 743 mmHg 85%
    12:00 +23°C° 0.1 mm 4 m/s 742 mmHg 79%
    13:00 +26°C° 0.1 mm 5 m/s 742 mmHg 73%
    14:00 +28°C° 0.1 mm 5 m/s 742 mmHg 67%
    15:00 +27°C° 0.6 mm 5 m/s 742 mmHg 72%
    16:00 +27°C° 0.6 mm 4 m/s 742 mmHg 77%
    17:00 +26°C° 0.6 mm 3 m/s 741 mmHg 81%
    18:00 +25°C° 1.1 mm 3 m/s 741 mmHg 83%
    19:00 +24°C° 1.1 mm 3 m/s 741 mmHg 85%
    20:00 +22°C° 1.1 mm 3 m/s 741 mmHg 86%
    21:00 +22°C° 0.2 mm 3 m/s 741 mmHg 89%
    22:00 +21°C° 0.2 mm 3 m/s 741 mmHg 91%
    23:00 +20°C° 0.2 mm 2 m/s 741 mmHg 94%

    21 Junho, Sexta-feira

    Tempo Temperatura Precipitação Vento Pressão Humidade
    00:00 +20°C° 0.2 mm 2 m/s 741 mmHg 94%
    01:00 +19°C° 0.2 mm 2 m/s 741 mmHg 94%
    02:00 +19°C° 0.2 mm 2 m/s 741 mmHg 94%
    03:00 +19°C° 0.4 mm 2 m/s 741 mmHg 96%
    04:00 +19°C° 0.4 mm 2 m/s 741 mmHg 97%
    05:00 +19°C° 0.4 mm 2 m/s 742 mmHg 98%
    06:00 +20°C° 0 mm 2 m/s 742 mmHg 96%
    07:00 +21°C° 0 mm 2 m/s 742 mmHg 93%
    08:00 +23°C° 0 mm 2 m/s 742 mmHg 91%
    09:00 +24°C° 0.5 mm 2 m/s 742 mmHg 86%
    10:00 +26°C° 0.5 mm 2 m/s 742 mmHg 81%
    11:00 +27°C° 0.5 mm 1 m/s 742 mmHg 76%
    12:00 +27°C° 0.1 mm 2 m/s 742 mmHg 72%
    13:00 +28°C° 0.1 mm 2 m/s 742 mmHg 68%
    14:00 +29°C° 0.1 mm 2 m/s 742 mmHg 64%
    15:00 +29°C° 0.4 mm 2 m/s 742 mmHg 65%
    16:00 +28°C° 0.4 mm 1 m/s 742 mmHg 67%
    17:00 +28°C° 0.4 mm 1 m/s 742 mmHg 68%
    18:00 +27°C° 0.2 mm 1 m/s 742 mmHg 72%
    19:00 +26°C° 0.2 mm 1 m/s 742 mmHg 76%
    20:00 +22°C° 0.2 mm 0 m/s 742 mmHg 79%
    21:00 +22°C° 0 mm 0 m/s 742 mmHg 81%
    22:00 +23°C° 0 mm 1 m/s 742 mmHg 83%
    23:00 +22°C° 0 mm 1 m/s 742 mmHg 85%
    Mostrar mais